NOZ7561 LSGG-LIMC

Flight info

Callsign NOZ7561
Flight time 0h 32m
Altitude 19000
Route ROCCA T345 LURAG M135 ASTIG
Aircraft MD82/M-SDFGIRWY/C

Departure

Time 2026-05-01 09:59
Airport Geneva International Airport (LSGG)

Arrival

Time 2026-05-01 10:31
Airport Milan Malpensa International Airport (LIMC)
Time Latitude Longitude Altitude Speed Heading
2026-05-01 09:25 46.23038 6.10560 1389 ft 0 kts 134°
2026-05-01 09:48 46.23038 6.10558 1388 ft 1 kts 134°
2026-05-01 09:49 46.23050 6.10546 1388 ft 2 kts 154°
2026-05-01 09:49 46.23065 6.10540 1388 ft 2 kts 174°
2026-05-01 09:49 46.23080 6.10541 1387 ft 2 kts 194°
2026-05-01 09:49 46.23094 6.10550 1387 ft 2 kts 213°
2026-05-01 09:50 46.23105 6.10564 1387 ft 2 kts 230°
2026-05-01 09:50 46.23106 6.10567 1387 ft 1 kts 228°
2026-05-01 09:50 46.23095 6.10551 1387 ft 0 kts 225°
2026-05-01 09:50 46.23095 6.10550 1387 ft 0 kts 225°
2026-05-01 09:55 46.23078 6.10526 1387 ft 7 kts 229°
2026-05-01 09:55 46.23107 6.10431 1385 ft 15 kts 317°
2026-05-01 09:55 46.23167 6.10305 1382 ft 12 kts 249°
2026-05-01 09:55 46.23101 6.10190 1386 ft 18 kts 226°
2026-05-01 09:56 46.22990 6.10027 1388 ft 27 kts 226°
2026-05-01 09:56 46.22861 6.09840 1391 ft 24 kts 224°
2026-05-01 09:56 46.22751 6.09682 1393 ft 20 kts 227°
2026-05-01 09:56 46.22658 6.09545 1394 ft 17 kts 226°
2026-05-01 09:57 46.22587 6.09435 1397 ft 12 kts 230°
2026-05-01 09:57 46.22555 6.09343 1399 ft 9 kts 255°
2026-05-01 09:57 46.22551 6.09229 1402 ft 17 kts 286°
2026-05-01 09:57 46.22640 6.09186 1404 ft 15 kts 39°
2026-05-01 09:58 46.22651 6.09200 1403 ft 0 kts 44°
2026-05-01 09:58 46.22651 6.09201 1403 ft 1 kts 44°
2026-05-01 09:58 46.22807 6.09425 1399 ft 70 kts 45°
2026-05-01 09:59 46.23331 6.10191 1381 ft 141 kts 45°
2026-05-01 09:59 46.24132 6.11376 1669 ft 174 kts 45°
2026-05-01 09:59 46.24963 6.12614 2554 ft 174 kts 45°
2026-05-01 09:59 46.25808 6.13857 3226 ft 186 kts 45°
2026-05-01 10:00 46.26773 6.15267 3739 ft 211 kts 45°
2026-05-01 10:00 46.27841 6.16831 4153 ft 215 kts 45°
2026-05-01 10:00 46.28920 6.18413 4657 ft 234 kts 45°
2026-05-01 10:00 46.30122 6.20175 5152 ft 258 kts 45°
2026-05-01 10:01 46.31410 6.22065 5831 ft 270 kts 45°
2026-05-01 10:01 46.32719 6.23988 6668 ft 270 kts 45°
2026-05-01 10:01 46.34031 6.25916 7339 ft 274 kts 45°
2026-05-01 10:01 46.35303 6.27937 8089 ft 276 kts 58°
2026-05-01 10:02 46.35922 6.30537 8782 ft 279 kts 85°
2026-05-01 10:02 46.35641 6.33298 9443 ft 284 kts 112°
2026-05-01 10:02 46.34497 6.35642 10094 ft 289 kts 139°
2026-05-01 10:02 46.32735 6.37057 10587 ft 302 kts 161°
2026-05-01 10:03 46.30574 6.37376 10641 ft 329 kts 186°
2026-05-01 10:03 46.28330 6.36354 10837 ft 348 kts 209°
2026-05-01 10:03 46.26323 6.34480 11566 ft 347 kts 212°
2026-05-01 10:03 46.24373 6.32357 12049 ft 355 kts 219°
2026-05-01 10:04 46.22354 6.30322 12679 ft 355 kts 208°
2026-05-01 10:04 46.20109 6.28851 13291 ft 357 kts 197°
2026-05-01 10:04 46.17699 6.28077 13862 ft 358 kts 184°
2026-05-01 10:04 46.15233 6.28116 14368 ft 359 kts 171°
2026-05-01 10:05 46.12740 6.28463 14928 ft 362 kts 174°
2026-05-01 10:05 46.10215 6.28691 15473 ft 366 kts 176°
2026-05-01 10:05 46.07690 6.28822 16065 ft 367 kts 176°
2026-05-01 10:05 46.05107 6.28883 16583 ft 370 kts 178°
2026-05-01 10:06 46.02528 6.28885 17107 ft 373 kts 178°
2026-05-01 10:06 45.99960 6.28875 17638 ft 373 kts 173°
2026-05-01 10:06 45.97440 6.29746 18069 ft 373 kts 155°
2026-05-01 10:06 45.95228 6.31619 18559 ft 373 kts 139°
2026-05-01 10:07 45.93464 6.34319 19054 ft 373 kts 129°
2026-05-01 10:07 45.91740 6.37107 19334 ft 385 kts 130°
2026-05-01 10:07 45.89951 6.39999 19326 ft 390 kts 130°
2026-05-01 10:07 45.88101 6.42991 19345 ft 411 kts 130°
2026-05-01 10:08 45.84209 6.49284 19328 ft 427 kts 130°
2026-05-01 10:08 45.82248 6.52456 19339 ft 422 kts 130°
2026-05-01 10:08 45.80313 6.55588 19309 ft 419 kts 130°
2026-05-01 10:09 45.78370 6.58731 19320 ft 420 kts 131°
2026-05-01 10:09 45.76379 6.61725 19324 ft 420 kts 130°
2026-05-01 10:09 45.74452 6.64888 19318 ft 420 kts 128°
2026-05-01 10:09 45.72678 6.68139 19319 ft 420 kts 125°
2026-05-01 10:10 45.70993 6.71591 19333 ft 419 kts 123°
2026-05-01 10:10 45.69333 6.75027 19320 ft 419 kts 123°
2026-05-01 10:10 45.66031 6.81828 19329 ft 419 kts 123°
2026-05-01 10:11 45.64365 6.85251 19338 ft 419 kts 123°
2026-05-01 10:11 45.62701 6.88657 19339 ft 419 kts 123°
2026-05-01 10:11 45.61028 6.92085 19335 ft 420 kts 123°
2026-05-01 10:11 45.59371 6.95470 19341 ft 420 kts 123°
2026-05-01 10:12 45.57700 6.98885 19356 ft 421 kts 123°
2026-05-01 10:12 45.56573 7.01185 19364 ft 421 kts 123°
2026-05-01 10:12 45.52554 7.09039 19347 ft 422 kts 129°
2026-05-01 10:13 45.50532 7.12045 19359 ft 422 kts 135°
2026-05-01 10:13 45.48354 7.14811 19372 ft 423 kts 135°
2026-05-01 10:13 45.46154 7.17613 19347 ft 424 kts 136°
2026-05-01 10:14 45.41759 7.23231 19365 ft 424 kts 135°
2026-05-01 10:14 45.39593 7.26011 19359 ft 424 kts 135°
2026-05-01 10:14 45.37397 7.28833 19345 ft 424 kts 135°
2026-05-01 10:14 45.35202 7.31660 19340 ft 425 kts 135°
2026-05-01 10:15 45.33020 7.34471 19380 ft 425 kts 135°
2026-05-01 10:15 45.30826 7.37301 19362 ft 426 kts 135°
2026-05-01 10:15 45.28662 7.40095 19364 ft 425 kts 135°
2026-05-01 10:15 45.26457 7.42916 19373 ft 425 kts 135°
2026-05-01 10:16 45.24252 7.45730 19357 ft 425 kts 135°
2026-05-01 10:16 45.22052 7.48537 19369 ft 426 kts 135°
2026-05-01 10:16 45.17663 7.54129 19370 ft 426 kts 135°
2026-05-01 10:17 45.15451 7.56944 19377 ft 426 kts 135°
2026-05-01 10:17 45.11058 7.62534 19366 ft 426 kts 135°
2026-05-01 10:17 45.08847 7.65348 19374 ft 427 kts 135°
2026-05-01 10:18 45.04456 7.70943 19379 ft 427 kts 134°
2026-05-01 10:18 45.02600 7.74169 19275 ft 423 kts 117°
2026-05-01 10:18 45.01536 7.77956 18881 ft 406 kts 100°
2026-05-01 10:19 45.01380 7.81818 18473 ft 386 kts 82°
2026-05-01 10:19 45.02091 7.85323 18051 ft 373 kts 63°
2026-05-01 10:19 45.03578 7.88284 17670 ft 368 kts 50°
2026-05-01 10:20 45.06251 7.94433 16921 ft 374 kts 63°
2026-05-01 10:20 45.07397 7.97751 16516 ft 375 kts 63°
2026-05-01 10:20 45.08541 8.01068 16120 ft 372 kts 63°
2026-05-01 10:20 45.09659 8.04304 15700 ft 371 kts 63°
2026-05-01 10:21 45.10788 8.07575 15350 ft 368 kts 63°
2026-05-01 10:21 45.13018 8.14020 14484 ft 368 kts 63°
2026-05-01 10:21 45.14179 8.17374 14134 ft 384 kts 63°
2026-05-01 10:22 45.16533 8.24169 13397 ft 386 kts 63°
2026-05-01 10:22 45.19082 8.30700 12551 ft 373 kts 51°
2026-05-01 10:23 45.20603 8.33605 11905 ft 365 kts 53°
2026-05-01 10:23 45.23513 8.39252 10551 ft 350 kts 53°
2026-05-01 10:23 45.24920 8.42009 9893 ft 344 kts 53°
2026-05-01 10:24 45.27678 8.47438 8623 ft 334 kts 53°
2026-05-01 10:24 45.30336 8.52695 7320 ft 326 kts 53°
2026-05-01 10:25 45.32941 8.57857 5999 ft 320 kts 53°
2026-05-01 10:25 45.35877 8.62453 4669 ft 310 kts 43°
2026-05-01 10:26 45.37409 8.64486 4259 ft 298 kts 43°
2026-05-01 10:26 45.38910 8.66468 3886 ft 290 kts 44°
2026-05-01 10:26 45.41895 8.70384 3189 ft 293 kts 44°
2026-05-01 10:27 45.44875 8.74282 2968 ft 289 kts 44°
2026-05-01 10:27 45.48051 8.76925 2881 ft 240 kts 19°
2026-05-01 10:28 45.49616 8.76951 2913 ft 213 kts 349°
2026-05-01 10:28 45.52292 8.76260 2576 ft 188 kts 352°
2026-05-01 10:28 45.53580 8.75924 2303 ft 184 kts 352°
2026-05-01 10:29 45.56008 8.75276 1839 ft 164 kts 351°
2026-05-01 10:29 45.57087 8.74985 1578 ft 152 kts 350°
2026-05-01 10:30 45.59146 8.74414 1210 ft 155 kts 351°
2026-05-01 10:30 45.61286 8.73821 821 ft 155 kts 350°
2026-05-01 10:31 45.63055 8.73311 723 ft 67 kts 335°
2026-05-01 10:31 45.63400 8.72547 739 ft 41 kts 258°
2026-05-01 10:32 45.63336 8.72085 745 ft 13 kts 259°
2026-05-01 10:32 45.63332 8.72061 746 ft 0 kts 259°
2026-05-01 10:32 45.63265 8.71972 746 ft 21 kts 173°
2026-05-01 10:33 45.62977 8.72053 739 ft 10 kts 169°
2026-05-01 10:33 45.62761 8.72110 734 ft 20 kts 172°
2026-05-01 10:34 45.62675 8.71998 734 ft 18 kts 262°
2026-05-01 10:34 45.62635 8.71851 737 ft 15 kts 199°
2026-05-01 10:34 45.62532 8.71847 737 ft 9 kts 213°
2026-05-01 10:35 45.62511 8.71769 739 ft 2 kts 259°
2026-05-01 10:35 45.62510 8.71759 739 ft 0 kts 259°